Location: Vancouver
(49.2500°N, 123.1330°W)
Time: 08:01:30
(UTC-08:00)

deb Explorer IX - Visible Passes

Search period start: 20 January 2017 00:00
Search period end: 30 January 2017 00:00
Orbit: 546 x 1123 km, 38.8° (Epoch: 18 January)

Date Brightness Start Highest point End Pass type
(mag) Time Alt. Az. Time Alt. Az. Time Alt. Az.
27 Jan ? 07:07:19 10° S 07:10:48 14° SSE 07:14:10 10° ESE visible
28 Jan ? 06:47:43 10° S 06:51:33 15° SSE 06:55:15 10° ESE visible
29 Jan ? 06:28:08 10° S 06:32:16 16° SSE 06:36:16 10° ESE visible
